AirNav   ATP
 
 314 users online  

52XS Clear Lake Regional Medical Center Heliport
Webster, Texas, USA

GOING TO WEBSTER?


FAA INFORMATION EFFECTIVE 24 MAY 2018

Location

FAA Identifier: 52XS
Lat/Long: 29-32-29.1700N / 095-07-43.0100W
29-32.486167N / 095-07.716833W
29.5414361 / -95.1286139
(estimated)
Elevation: 51 ft. / 16 m (estimated)
Variation: 04E (2000)
Time zone: UTC -5 (UTC -6 during Standard Time)
Zip code: 77598

Heliport Operations

Heliport use: Private use, MEDICAL.
Activation date: 06/2002
Control tower: no
ARTCC: HOUSTON CENTER
FSS: MONTGOMERY COUNTY FLIGHT SERVICE STATION
Attendance: UNATNDD
Segmented circle: no

Heliport Communications

WX ASOS at LVJ (6 nm W): 118.525 (281-992-1853)
WX ASOS at HOU (10 nm NW): PHONE 713-847-1462
WX AWOS-3 at AXH (18 nm W): 123.625 (281-431-6572)

Nearby radio navigation aids

VOR radial/distance  VOR name  Freq  Var
HUBr127/10.3HOBBY VOR/DME117.1005E
MHFr262/19.9TRINITY VOR/DME113.6007E
VUHr314/21.3SCHOLES VOR/DME113.0006E
IAHr151/27.4HUMBLE VORTAC116.6005E

 
NDB name  Hdg/Dist  Freq  Var  ID
GALVESTON295/23.120608EGLS --. .-.. ...
NIXIN166/27.532605EBVP -... ...- .--.

Heliport Services

Runway Information

Helipad H1

Dimensions: 60 x 60 ft. / 18 x 18 m
Surface: concrete
Latitude: 29-32.486167N
Longitude: 095-07.716833W
Elevation: 51.0 ft.
Traffic pattern: leftleft

Heliport Ownership and Management from official FAA records

Ownership: Privately-owned
Owner: HCA-CLEAR LAKE MEDICAL CENTER
500 MEDICAL CENTER BLVD
WEBSTER, TX 77598
Phone 281-338-3181
Manager: RICHARD UNGER
500 MEDICAL CENTER BLVD
WEBSTER, TX 77598
Phone 281-338-3765

Instrument Procedures

There are no published instrument procedures at 52XS.

Some nearby airports with instrument procedures:

KEFD - Ellington Airport (4 nm N)
KLVJ - Pearland Regional Airport (6 nm W)
T41 - La Porte Municipal Airport (8 nm NE)
KHOU - William P Hobby Airport (10 nm NW)
KHPY - Baytown Airport (17 nm NE)
KAXH - Houston Southwest Airport (18 nm W)
54T - RWJ Airpark (20 nm NE)
 
Loc | Ops | Rwys | IFR | FBO | Links
Com | Nav | Svcs | Stats | Notes

AirNav Hotels Sweepstakes
 
Area around 52XS (Clear Lake Regional Medical Center Heliport)
 
Road maps at: MapQuest Bing Google
 
Aerial photo
No photo
 
Sectional chart

 
Airport distance calculator
Flying to Clear Lake Regional Medical Center Heliport? Find the distance to fly.

From to 52XS

Sunrise and sunset
Times for 26-May-2018
 Local
(UTC-5)
 Zulu
(UTC)
Morning civil twilight05:5710:57
Sunrise06:2411:24
Sunset20:1101:11
Evening civil twilight20:3801:38

Current date and time
Zulu (UTC)  26-May-2018 07:14:57
Local (UTC-5)  26-May-2018 02:14:57
 
METAR
KEFD 
4nm NW 
260650Z 17003KT 10SM BKN250 25/23 A2988
KLVJ 
7nm W 
260653Z AUTO 19003KT 10SM CLR 24/24 A2988 RMK AO2 SLP117 T02440239
KHOU 
10nm NW 
260653Z 18003KT 10SM SCT180 BKN250 24/24 A2986 RMK AO2 SLP118 T02440244
KAXH 
18nm W 
260655Z AUTO 10SM CLR 23/22 A2989 RMK AO2 T02250222
TAF
KEFD 
4nm NW 
260400Z 2604/2710 VRB06KT 9999 FEW030 SCT250 QNH2980INS BECMG 2609/2610 VRB06KT 9999 BKN015 QNH2981INS BECMG 2613/2614 VRB06KT 9999 BKN025 QNH2984INS BECMG 2616/2617 VRB06KT 9999 SCT025 QNH2972INS TEMPO 2618/2624 VRB12G18KT 8000 -TSRA SCT025CB BECMG 2700/2701 VRB06KT 9999 FEW090 QNH2972INS TX32/2621Z TN23/2611Z
KHOU 
10nm NW 
260522Z 2606/2706 19007KT P6SM SCT250 FM261500 21005KT P6SM SCT025 SCT140 FM261700 22006KT P6SM SCT040 FM262200 14006KT P6SM FEW050 BKN180
NOTAMs
Click for the latest NOTAMs
NOTAMs are issued by the DoD/FAA and will open in a separate window not controlled by AirNav.

 

 
 

Would you like to see your business listed on this page?

 If your business provides an interesting product or service to pilots, flight crews, aircraft, or users of the Clear Lake Regional Medical Center Heliport, you should consider listing it here.  To start the listing process, click on the button below
 
Add a business
 

Other Pages about Clear Lake Regional Medical Center Heliport

Update a link
 
Copyright © AirNav, LLC. All rights reserved. Privacy Policy  Contact